Ellicott, CO

3:52 PM MDT on October 14, 2019 (GMT -0600)
Ellicott

Weather History for KABH - September, 2019

Change the Weather History Date:

Sunday, September 15, 2019

  Actual Average (WUND) Record (WUND)
Temperature  
Mean Temperature 66 °F -  
Max Temperature 84 °F - - (-1)
Min Temperature 48 °F - - (-1)
Cooling Degree Days 1    
Growing Degree Days 16 (Base 50)    
Moisture  
Dew Point 42 °F    
Average Humidity 44    
Maximum Humidity 89    
Minimum Humidity 13    
Precipitation  
Precipitation 0.00 in - - ()
Sea Level Pressure  
Sea Level Pressure 29.97 in    
Wind  
Wind Speed 9 mph ()    
Max Wind Speed 15 mph    
Max Gust Speed 22 mph    
Averages and records for this station are not official NWS values.
T = Trace of Precipitation, MM = Missing Value Source: Averaged Metar Reports

Daily Weather History Graph

Daily Weather History Graph

Search for Another Location

Airport or City:

Astronomy

Sep. 15, 2019 Rise Set
Actual Time 6:38 AM MDT 7:05 PM MDT
Civil Twilight 6:11 AM MDT 7:32 PM MDT
Nautical Twilight 5:40 AM MDT 8:03 PM MDT
Astronomical Twilight 5:08 AM MDT 8:35 PM MDT
Moon 8:15 PM MDT (9/15) 7:50 AM MDT (9/15)
Length of Visible Light 13h 20m
Length of Day
12h 27m
Full, 98% of the Moon is Illuminated
Sep 15
Full
Sep 21
Last Quarter
Sep 28
New
Oct 5
First Quarter
Oct 13
Full

Hourly Weather History & Observations

Time (MDT) Temp. Dew Point Humidity Pressure Visibility Wind Dir Wind Speed Gust Speed Precip Events Conditions
12:58 AM 62.8 °F 50.9 °F 65% 30.00 in - NE 15.0 mph - N/A   Clear
1:58 AM 60.6 °F 50.4 °F 69% 30.01 in - NE 15.0 mph - N/A   Clear
2:58 AM 58.8 °F 49.8 °F 72% 30.01 in - Calm Calm - N/A   Clear
3:58 AM 53.4 °F 48.0 °F 82% 30.01 in - North 5.8 mph - N/A   Clear
4:58 AM 52.9 °F 47.8 °F 83% 30.01 in - NE 8.1 mph - N/A   Clear
5:58 AM 48.7 °F 45.7 °F 89% 30.04 in - NE 5.8 mph - N/A   Clear
6:58 AM 54.1 °F 47.1 °F 77% 30.04 in - NE 4.6 mph - N/A   Clear
7:58 AM 62.8 °F 49.1 °F 61% 30.02 in - Calm Calm - N/A   Clear
8:58 AM 72.7 °F 40.3 °F 31% 30.02 in - Calm Calm - N/A   Clear
9:58 AM 77.4 °F 40.1 °F 26% 30.02 in - SE 8.1 mph - N/A   Clear
10:58 AM 81.0 °F 39.4 °F 23% 30.00 in - SSE 10.4 mph - N/A   Clear
11:58 AM 82.4 °F 36.7 °F 19% 29.99 in - SSE 12.7 mph - N/A   Clear
12:58 PM 83.3 °F 32.9 °F 16% 29.98 in - SE 11.5 mph 21.9 mph N/A   Clear
1:58 PM 84.2 °F 30.0 °F 14% 29.96 in - East 10.4 mph 19.6 mph N/A   Clear
2:58 PM 82.0 °F 33.6 °F 17% 29.93 in - SE 13.8 mph 18.4 mph N/A   Partly Cloudy
3:58 PM 82.6 °F 26.2 °F 13% 29.94 in - ESE 13.8 mph 20.7 mph N/A   Partly Cloudy
4:58 PM 81.9 °F 33.4 °F 17% 29.93 in - SE 11.5 mph - N/A   Mostly Cloudy
5:58 PM 79.3 °F 37.4 °F 22% 29.95 in - SE 15.0 mph - N/A   Mostly Cloudy
6:58 PM 75.9 °F 41.7 °F 29% 29.95 in - SE 15.0 mph - N/A   Overcast
8:58 PM 69.8 °F 45.0 °F 41% 29.91 in - SE 10.4 mph - N/A   Mostly Cloudy
9:58 PM 66.4 °F 44.2 °F 45% 29.91 in - SE 12.7 mph - N/A   Mostly Cloudy
10:58 PM 66.0 °F 43.3 °F 44% 29.88 in - SE 15.0 mph - N/A   Overcast
11:58 PM 62.8 °F 42.1 °F 47% 29.88 in - SE 15.0 mph - N/A   Clear